#timestamp,LO_Frequency,Hit 
1501290035.6,286046998.5,P
1501290055.5,286046998.2,P
1501290075.3,286046998.9,P
1501290095.2,286047001.2,P
1501290115.9,286047004.0,P
1501290135.7,286047001.9,N
1501290155.6,286046998.9,N
1501290175.4,286046999.4,N
1501290195.2,286046998.3,N
1501290215.1,286046997.3,N
1501290216.0,286046997.3,N
1501290235.8,286046995.5,N
1501290255.7,286046998.0,N
1501290275.5,286046997.5,N
1501290295.3,286046997.2,N
1501290315.2,286046995.3,N
1501290335.0,286046995.9,N
1501290335.9,286046995.9,N
1501290355.8,286046993.9,N
1501290375.6,286046994.6,N
1501290395.4,286046991.7,P
1501290415.3,286046996.4,N
1501290435.1,286046996.5,N
1501290455.8,286047000.8,N
1501290475.7,286047001.2,N
1501290495.5,286047000.1,N
1501290515.4,286046998.2,N
1501290535.2,286046996.5,N
1501290555.0,286046997.0,N
1501290555.9,286046997.0,N
1501290575.8,286046997.3,N
1501290595.6,286046995.1,N
1501290615.4,286046995.7,N
1501290635.3,286046997.9,N
1501290655.1,286046996.8,N
1501290675.9,286046997.3,N
1501290695.7,286046997.9,N
1501290715.5,286046996.7,N
1501290735.4,286046997.9,N
1501290755.2,286046996.2,N
1501290775.0,286046994.9,N
1501290776.0,286046994.9,N
1501290795.8,286046996.5,N
1501290815.6,286046998.7,N
1501290835.5,286046998.4,N
1501290855.3,286046996.9,N
1501290875.1,286046994.9,N
1501290895.9,286046997.5,N
1501290915.7,286046997.3,N
1501290935.6,286046999.1,N
1501290955.4,286047000.7,N
1501290975.2,286046999.0,N
1501290995.1,286046998.6,N
1501290996.0,286046998.6,N
1501291015.8,286046999.3,N
1501291035.6,286046996.9,N
1501291055.5,286046997.3,N
1501291075.3,286046996.6,N
1501291095.2,286046999.6,N
1501291115.9,286046997.3,N
1501291135.7,286046999.3,N
1501291155.6,286046997.3,N
1501291175.4,286046997.0,N
1501291195.2,286046996.8,N
1501291215.1,286046995.5,P
1501291216.0,286046995.5,P
1501291235.8,286046998.5,N
1501291255.7,286046998.5,N
1501291275.5,286046998.9,N
1501291295.3,286046996.8,N
1501291315.2,286047000.7,N
1501291335.0,286047000.2,N
1501291335.9,286047000.2,N
1501291355.8,286047000.3,N
1501291375.6,286047000.3,N
1501291395.4,286046999.2,N
1501291415.3,286047001.2,N
1501291435.1,286046998.4,N
1501291455.8,286047001.2,N
1501291475.7,286047001.6,N
1501291495.5,286047003.7,N
1501291515.4,286047001.7,N
1501291535.2,286047000.0,N
1501291555.0,286047000.7,N
1501291555.9,286047000.7,N
1501291575.8,286046998.5,N
1501291595.6,286046998.7,N
1501291615.4,286046998.6,N
1501291635.3,286046998.7,N
1501291655.1,286046998.3,N
1501291675.9,286046997.3,N
1501291695.7,286046999.3,N
1501291715.5,286046999.0,N
1501291735.4,286047001.0,N
1501291755.2,286046998.3,N
1501291775.0,286046996.6,N
1501291775.9,286046996.6,N
1501291795.8,286047000.8,N
1501291815.6,286046999.3,N
1501291835.5,286046997.4,N
1501291855.3,286046993.3,P
1501291875.1,286046993.6,N
1501291895.9,286046997.5,N
1501291915.7,286046999.2,N
1501291935.6,286046996.7,N
1501291955.4,286046999.2,N
1501291975.2,286046997.4,N
1501291995.1,286046997.1,N
1501291996.0,286046997.1,N
1501292015.8,286046995.4,N
1501292035.6,286046995.3,N
1501292055.5,286046995.2,N
1501292075.3,286046996.1,N
1501292095.2,286046993.9,P
1501292115.9,286046998.0,N
1501292135.7,286046996.8,N
1501292155.6,286046998.4,N
1501292175.4,286046998.1,N
1501292195.3,286046998.7,N
1501292215.1,286046996.9,N
1501292216.0,286046996.9,N
1501292235.8,286046996.8,N
1501292255.7,286046999.0,N
1501292275.5,286046999.5,N
1501292295.3,286046998.5,N
1501292315.2,286047000.5,N
1501292335.0,286046999.0,N
1501292335.9,286046999.0,N
1501292355.8,286047000.5,N
1501292375.6,286047002.3,N
1501292395.4,286047002.6,N
1501292415.3,286047000.6,N
1501292435.1,286046996.6,N
1501292455.8,286046999.5,N
1501292475.7,286046998.6,N
1501292495.5,286047000.5,N
1501292515.4,286047000.0,N
1501292535.2,286046999.3,N
1501292555.0,286046999.6,N
1501292555.9,286046999.6,N
1501292575.8,286046998.7,N
1501292595.6,286047000.4,N
1501292615.4,286046998.7,N
1501292635.3,286046996.5,N
1501292655.1,286046996.5,N
1501292675.9,286046999.1,N
1501292695.7,286046999.0,N
1501292715.5,286047000.7,N
1501292735.4,286046999.6,N
1501292755.2,286046996.8,N
1501292775.0,28601501292795.9,286046999.4,P
1501292815.7,286046997.1,P
1501292835.6,286046996.7,P
1501292855.4,286046997.2,N
1501292875.2,286046999.4,N
1501292895.1,286046997.1,N
1501292896.0,286046997.1,N
1501292915.8,286046997.1,N
1501292935.7,286046998.0,N
1501292955.5,286046997.6,N
1501292975.3,286046996.3,P
1501292995.2,286046997.3,P
1501293015.0,286046997.1,P
1501293015.9,286046997.1,P
1501293035.8,286047001.3,P
1501293055.6,286047001.4,N
1501293075.4,286047005.6,N
1501293095.3,286047004.3,N
1501293115.1,286047002.0,N
1501293135.8,286047002.6,N
1501293155.7,286047001.6,N
1501293175.5,286047000.4,N
1501293195.4,286047000.3,N
1501293215.2,286047001.1,N
1501293235.0,286047001.2,N
1501293235.9,286047001.2,N
1501293255.8,286047001.1,N
1501293275.6,286046998.8,N
1501293295.4,286047002.4,N
1501293315.3,286047003.7,N
1501293335.1,286047003.5,N
1501293355.9,286046999.8,N
1501293375.7,286046998.5,N
1501293395.5,286047001.2,N
1501293415.4,286046999.1,N
1501293435.2,286047000.8,N
1501293455.0,286046998.6,N
1501293475.2,286046998.1,N
1501293495.0,286046999.2,N
1501293495.9,286046999.2,N
1501293515.8,286046999.0,N
1501293535.6,286046996.7,N
1501293555.5,286046999.7,N
1501293575.3,286047003.7,N
1501293595.1,286047003.7,N
